Location: Gipe Farm
(40.9466°N, 95.5370°W)
Time: 16:09:05
(UTC-05:00)

Daily predictions for brighter satellites

Satellite Brightness Start Highest point End
(mag) Time Altitude Azimuth Time Altitude Azimuth Time Altitude Azimuth
CSL-04 Rocket 4.0 18:48:00 10° S 18:53:19 71° WSW 18:58:38 10° NNW
CSL-04 Debris 4.4 18:47:50 10° SSE 18:53:19 80° WSW 18:58:50 10° NNW
CZ-4C R/B 2.7 18:49:56 10° S 18:54:36 37° ESE 18:59:49 10° NE
COSMO-SKYMED 1 3.3 18:52:01 10° NNE 18:55:56 33° E 18:59:51 10° SSE
Cosmos 2322 Rocket 4.1 18:52:20 10° NW 18:57:26 36° WSW 19:02:30 10° S
Cosmos 2151 2.9 18:53:29 10° N 18:57:45 67° E 19:01:57 10° SSE
Cosmos 2098 Rocket 4.4 18:53:55 10° SE 18:57:56 27° E 19:02:45 10° NNE
Cosmos 2058 2.9 18:54:55 10° N 18:59:05 68° E 19:03:11 10° SSE
Abrixas 1.8 18:57:52 10° SW 18:59:57 53° SSE 19:02:03 10° ENE
Cosmos 2366 rocket 4.1 18:55:10 10° S 19:01:23 85° W 19:07:35 10° N
COSMOS 2428 3.1 18:56:03 10° NNW 19:01:29 44° ENE 19:06:53 10° SE
FENGYUN 3A 4.5 18:57:29 10° SE 19:02:03 29° ENE 19:06:39 10° N
CORIOLIS 4.2 18:57:28 10° SSE 19:02:51 89° ENE 19:08:19 10° NNW
Cosmos 2333 Rocket 3.2 18:59:20 10° N 19:04:06 26° NE 19:08:51 10° ESE
Cosmos 44 Rocket 3.3 19:00:32 10° SSW 19:05:08 58° ESE 19:09:45 10° NE
Cosmos 2219 3.7 18:59:50 10° S 19:05:09 41° ESE 19:10:29 10° NE
MOS 1 4.4 19:02:47 10° SSE 19:08:18 57° ENE 19:13:53 10° N
Cosmos 158 Rocket 4.0 19:04:54 10° S 19:09:52 62° ESE 19:15:00 10° NNE
Cosmos 2297 Rocket 3.8 19:09:44 10° ESE 19:12:03 13° E 19:14:05 11° ENE
ERS-2 2.3 19:08:38 10° S 19:12:19 80° WSW 19:16:02 10° NNW
GRACE-2 3.8 19:13:00 10° SSE 19:15:29 49° E 19:17:59 10° N
Cosmos 1048 Rocket 4.0 19:10:37 10° S 19:15:37 57° ESE 19:20:38 10° NNE
APEX 2.4 19:12:34 10° SSW 19:15:43 72° ESE 19:18:30 10° NNE
YAOGAN 1 2.6 19:12:37 10° SSE 19:16:57 88° ENE 19:21:18 10° NNW
Cosmos 1726 2.8 19:15:59 10° SSE 19:19:15 31° E 19:22:32 10° NNE
Cosmos 1633 Rocket 4.4 19:16:45 10° NNE 19:20:01 20° ENE 19:23:16 10° ESE
CZ-4 R/B 2.3 19:16:45 10° S 19:20:52 56° W 19:24:56 10° NNW
GRACE-1 3.5 19:18:39 10° S 19:21:11 68° E 19:23:46 10° N
Cosmos 1420 Rocket 4.0 19:16:53 10° NNW 19:22:14 86° ENE 19:27:31 10° SSE
EO 1 Del DPAF 3.2 19:19:28 10° NNE 19:23:19 85° ESE 19:27:09 10° SSW
SKYMED 3 4.5 19:21:45 10° NNE 19:26:06 73° ESE 19:30:25 10° S
DELTA 2 R/B (1) 4.4 19:21:48 10° W 19:27:06 46° SSW 19:32:26 10° SE
Cosmos 2322 4.2 19:22:00 10° NNW 19:27:41 65° WSW 19:33:18 10° S
NOAA 12 4.2 19:26:25 10° SSE 19:31:35 57° ENE 19:36:48 10° N
Cosmos 2219 Rocket 2.4 19:28:34 10° NNW 19:34:01 49° ENE 19:39:27 10° SE
Cosmos 1934 Rocket 4.3 19:29:18 10° SSE 19:35:16 45° E 19:41:16 10° NNE
Cosmos 1000 Rocket 4.4 19:29:14 10° N 19:35:26 66° E 19:41:32 10° SSE
Cosmos 1821 Rocket 4.0 19:31:01 10° S 19:37:03 61° E 19:43:14 10° NNE
METEOR-M 4.2 19:32:03 10° SSE 19:37:24 85° WSW 19:42:47 10° NNW
Cosmos 2221 2.5 19:33:28 10° S 19:37:48 86° W 19:42:11 10° N
Cosmos 2084 3.7 19:35:31 10° NNW 19:39:05 37° NE 19:40:51 23° E
Delta 2 Rocket 4.5 19:35:40 10° WSW 19:39:12 31° SSW 19:41:39 15° SE
ALOS 2.2 19:35:47 10° SSE 19:40:22 62° ENE 19:45:00 10° N
Cosmos 1315 Rocket 3.7 19:36:41 10° NNW 19:40:41 55° W 19:44:43 10° S
Cosmos 2239 Rocket 4.4 19:36:21 10° S 19:42:25 67° E 19:48:32 10° NNE
Cosmos 921 Rocket 4.3 19:38:36 10° NNW 19:42:49 44° WSW 19:46:57 10° S
Thor Agena Rocket 3.8 19:38:50 10° NNE 19:43:37 41° E 19:48:21 10° S
SKYMED 2 3.8 19:39:46 10° N 19:44:06 71° WNW 19:48:25 10° SSW
Cosmos 1331 Rocket 4.4 19:44:48 10° N 19:49:42 39° ENE 19:52:43 21° ESE
USA 267 4.4 19:48:34 19° ESE 19:49:50 20° ESE 19:54:27 10° SSE
SJ-6B 3.6 20:01:35 30° NE 20:01:35 30° NE 20:04:07 10° N
BREEZE-M DEB (TANK) 4.1 19:41:16 10° WNW 20:01:27 64° NNE 20:04:20 30° E
MOS 1-B Rocket 4.4 20:06:24 31° E 20:08:07 38° ENE 20:13:46 10° N
Cosmos 2123 Rocket 3.9 20:02:02 10° N 20:08:16 68° E 20:14:31 10° SSE
Aureole 2 Rocket 3.1 20:04:33 10° NNW 20:08:30 66° WSW 20:12:32 10° S
H-2A R/B 2.7 20:07:17 35° SE 20:08:46 61° ENE 20:12:38 10° N
In-Cosmos 22 Rocket 4.2 20:03:36 10° N 20:09:20 63° ENE 20:15:06 10° SSE
Cosmos 2237 Rocket 2.3 20:05:49 10° NNW 20:11:24 54° ENE 20:13:38 34° ESE
Cosmos 1605 Rocket 3.9 20:05:38 10° S 20:11:35 58° E 20:17:32 10° NNE
Abrixas rocket 3.6 20:13:39 10° NW 20:16:04 28° N 20:16:04 28° N
Cosmos 2227 Rocket 2.2 20:12:32 10° S 20:18:04 59° ESE 20:21:12 26° NE
SWAS 4.3 20:14:03 10° SSW 20:18:17 73° ESE 20:19:08 54° NE
Cosmos 1302 Rocket 4.4 20:14:10 10° N 20:18:55 41° ENE 20:18:55 41° ENE
Cosmos 1300 3.2 20:19:26 10° SSW 20:23:12 58° W 20:27:00 10° N
SL-16 R/B 3.2 20:19:08 10° N 20:23:15 29° NE 20:23:15 29° NE
NOSS 0 Rocket 3.8 20:18:11 10° NNW 20:24:23 88° WSW 20:28:59 19° SSE
Gbstr 26 Del rocket 4.1 20:21:23 10° WNW 20:26:29 60° SW 20:29:43 28° SSE
Sich 1 3.5 20:23:22 10° NNW 20:27:42 60° W 20:32:02 10° S
Cosmos 494 Rocket 3.8 20:23:53 10° SSW 20:29:00 89° WNW 20:33:04 16° NNE
Resurs 01 Rocket 3.6 20:35:06 18° N 20:35:06 18° N 20:36:21 10° N
Meteor 2-17 Rocket 4.5 20:29:33 10° SSE 20:35:57 53° ENE 20:41:20 10° NNE
Cosmos 1980 3.6 20:30:12 10° NNW 20:35:53 90° ENE 20:37:55 42° SSE
Cosmos 1110 Rocket 4.3 20:33:07 10° NNW 20:38:24 67° WSW 20:41:39 23° S
BREEZE-M R/B 4.1 20:39:42 10° WSW 20:41:04 29° WSW 20:41:04 29° WSW
CZ-4C R/B 3.6 20:38:12 10° WSW 20:43:03 35° NW 20:48:07 12° NNE
Meteor 2-3 Rocket 3.7 20:37:21 10° N 20:42:51 65° ENE 20:42:51 65° ENE
USA 32 3.9 20:39:55 10° N 20:45:11 83° E 20:45:20 81° ESE
Cosmos 1447 Rocket 4.3 20:39:35 10° N 20:45:56 73° E 20:47:22 54° SSE
Hubble Space Telescope 3.4 20:44:53 10° SSW 20:45:28 12° SSW 20:45:28 12° SSW
Cosmos 2333 Rocket 3.0 20:43:06 10° NW 20:48:37 49° WSW 20:53:15 15° S
Cosmos 2297 Rocket 2.1 20:49:37 10° SSW 20:55:16 83° WNW 20:56:00 69° N
Cosmos 1328 Rocket 4.3 20:52:45 10° SSW 20:57:02 50° W 20:57:04 50° WNW
Envisat 4.3 21:05:02 30° N 21:05:02 30° N 21:07:35 10° N
Cosmos 2251 Rocket 4.0 20:59:53 10° SSW 21:05:06 60° WNW 21:06:04 51° NNW
Cosmos 2082 3.9 21:00:07 10° SSW 21:05:49 71° WNW 21:06:19 67° NNW
Cosmos 2219 Rocket 4.3 21:13:18 10° NW 21:17:35 23° W 21:21:50 10° SSW
USA 267 4.1 21:35:57 41° SW 21:35:57 41° SW 21:39:57 10° SW
Cosmos 2237 Rocket 4.3 21:50:49 10° NW 21:55:00 21° W 21:55:32 21° WSW
Cosmos 2227 Rocket 4.3 21:58:13 10° WSW 22:02:32 22° NW 22:03:08 22° NW
SL-16 R/B 4.3 22:03:01 10° NW 22:05:09 22° NW 22:05:09 22° NW
